This is the latest recevied weather packets stored in our database for station/object K6OUA-11. If no packets are shown the sender has not sent any weather packets the latest 1 day(s).
| Time | Temp. | Humidity | Pressure | Rain* | Wind** | Luminosity | Snow |
|---|---|---|---|---|---|---|---|
| 1778093722 | 21.11° C | 50% | - | 0 mm | - | - | - |
| 1778093356 | 20.56° C | 51% | - | 0 mm | - | - | - |
| 1778093234 | 21.11° C | 51% | - | 0 mm | - | - | - |
| 1778093112 | 20.56° C | 53% | - | 0 mm | - | - | - |
| 1778091893 | 20° C | 53% | - | 0 mm | - | - | - |
| 1778091649 | 20° C | 54% | - | 0 mm | - | - | - |
| 1778091040 | 20° C | 53% | - | 0 mm | - | - | - |
| 1778090674 | 20° C | 51% | - | 0 mm | - | - | - |
| 1778090552 | 20° C | 52% | - | 0 mm | - | - | - |
| 1778089455 | 19.44° C | 56% | - | 0 mm | - | - | - |
| 1778089090 | 19.44° C | 55% | - | 0 mm | - | - | - |
| 1778088602 | 18.89° C | 55% | - | 0 mm | - | - | - |
| 1778088480 | 18.89° C | 55% | - | 0 mm | - | - | - |
| 1778088236 | 18.89° C | 56% | - | 0 mm | - | - | - |
| 1778087505 | 18.89° C | 57% | - | 0 mm | - | - | - |
| 1778087383 | 18.33° C | 57% | - | 0 mm | - | - | - |
| 1778087261 | 18.33° C | 58% | - | 0 mm | - | - | - |
| 1778087139 | 18.33° C | 58% | - | 0 mm | - | - | - |
| 1778086164 | 17.78° C | 60% | - | 0 mm | - | - | - |
| 1778086042 | 17.78° C | 61% | - | 0 mm | - | - | - |
| 1778085920 | 17.78° C | 62% | - | 0 mm | - | - | - |
| 1778085798 | 17.78° C | 62% | - | 0 mm | - | - | - |
| 1778085310 | 17.78° C | 60% | - | 0 mm | - | - | - |
| 1778084823 | 17.78° C | 61% | - | 0 mm | - | - | - |
| 1778083969 | 17.78° C | 60% | - | 0 mm | - | - | - |
* Rain latest 24 hours (hover to see other rain measurements)
** Current wind speed in m/s (hover to see current wind gust speed)